Weather History for Memphis, TN

Change the Weather History Date:

Sunday, February 2, 2014

  Actual Average Record
Temperature  
Mean Temperature 47 °F 43 °F  
Max Temperature 64 °F 52 °F 74 °F (1974)
Min Temperature 30 °F 34 °F -11 °F (1951)
Degree Days  
Heating Degree Days 18 22  
Month to date heating degree days 22 45  
Since 1 July heating degree days 2183 1947  
Cooling Degree Days 0 0  
Month to date cooling degree days 0 0  
Year to date cooling degree days 0 1  
Moisture  
Dew Point 34 °F    
Average Humidity 80    
Maximum Humidity 93    
Minimum Humidity 67    
Precipitation  
Precipitation 1.58 in 0.15 in 2.47 in (1939)
Month to date precipitation 1.58 0.31  
Year to date precipitation 4.74 4.29  
Snow  
Snow 0.00 in 0.00 in 2.70 in (1880)
Month to date snowfall 0.0 0.1  
Since 1 July snowfall T 2.2  
Snow Depth 0.00 in    
Sea Level Pressure  
Sea Level Pressure 30.06 in    
Wind  
Wind Speed 13 mph (North)    
Max Wind Speed 22 mph    
Max Gust Speed 29 mph    
Visibility 5 miles    
Events Rain , Snow    
T = Trace of Precipitation, MM = Missing Value Source: NWS Daily Summary

Daily Weather History Graph

Daily Weather History Graph

Search for Another Location

Airport:

Trip Planner

Search our weather history database for the weather conditions in past years. The results will help you decide how hot, cold, wet, or windy it might be!

Date:

Astronomy

Feb. 02, 2014 Rise Set
Actual Time 6:58 AM CST 5:29 PM CST
Civil Twilight 6:31 AM CST 5:56 PM CST
Nautical Twilight 6:01 AM CST 6:26 PM CST
Astronomical Twilight 5:31 AM CST 6:56 PM CST
Moon 8:33 AM CST (2/2) 9:03 PM CST (2/2)
Length of Visible Light 11h 24m
Length of Day
10h 31m
Waxing Crescent, 11% of the Moon is Illuminated
Feb 2
Waxing Crescent
Feb 6
First Quarter
Feb 14
Full
Feb 22
Last Quarter
Mar 1
New

Hourly Weather History & Observations

Time (CST) Temp. Windchill Dew Point Humidity Pressure Visibility Wind Dir Wind Speed Gust Speed Precip Events Conditions
12:44 AM 64.4 °F - 53.6 °F 68% 29.90 in 10.0 mi WSW 11.5 mph 19.6 mph 0.00 in Rain Light Rain
12:54 AM 59.0 °F - 54.0 °F 83% 29.91 in 8.0 mi WNW 11.5 mph - 0.01 in Rain Light Rain
1:18 AM 57.2 °F - 55.4 °F 94% 29.92 in 8.0 mi WNW 9.2 mph - 0.01 in Rain Light Rain
1:39 AM 51.8 °F - 48.2 °F 88% 29.92 in 7.0 mi NW 9.2 mph 20.7 mph 0.01 in Rain Light Rain
1:54 AM 46.9 °F - 45.0 °F 93% 29.93 in 8.0 mi NW 17.3 mph 21.9 mph 0.01 in Rain Light Rain
2:54 AM 39.9 °F 31.8 °F 37.9 °F 93% 30.00 in 8.0 mi NNW 15.0 mph 20.7 mph 0.02 in Rain Light Rain
3:54 AM 39.0 °F 31.0 °F 36.0 °F 89% 30.02 in 6.0 mi North 13.8 mph - 0.06 in Rain Heavy Rain
4:54 AM 37.0 °F 28.9 °F 35.1 °F 93% 30.04 in 10.0 mi North 12.7 mph - 0.15 in Rain Light Rain
5:54 AM 36.0 °F 27.1 °F 34.0 °F 93% 30.08 in 10.0 mi North 13.8 mph - 0.05 in Rain Light Rain
6:54 AM 36.0 °F 28.5 °F 33.1 °F 89% 30.10 in 10.0 mi North 10.4 mph - 0.06 in Rain Light Rain
7:54 AM 35.1 °F 25.5 °F 32.0 °F 89% 30.13 in 8.0 mi North 15.0 mph - 0.00 in Rain Light Rain
8:54 AM 35.1 °F 26.9 °F 32.0 °F 89% 30.14 in 7.0 mi North 11.5 mph - 0.00 in Rain Light Rain
9:54 AM 35.1 °F 25.9 °F 32.0 °F 89% 30.14 in 5.0 mi NNE 13.8 mph - 0.07 in Rain Light Rain
10:54 AM 35.1 °F 26.9 °F 32.0 °F 89% 30.13 in 5.0 mi North 11.5 mph - 0.06 in Rain Light Rain
11:54 AM 35.1 °F 26.4 °F 32.0 °F 89% 30.11 in 3.0 mi NNE 12.7 mph - 0.05 in Rain Rain
12:54 PM 35.1 °F 26.9 °F 33.1 °F 92% 30.06 in 4.0 mi NNE 11.5 mph 19.6 mph 0.08 in Rain Rain
1:11 PM 35.6 °F 27.1 °F 32.0 °F 87% 30.07 in 4.0 mi North 12.7 mph - 0.04 in Rain Rain
1:14 PM 35.6 °F 25.5 °F 32.0 °F 87% 30.05 in 1.5 mi NNE 17.3 mph - 0.05 in Rain Heavy Rain
1:16 PM 35.6 °F 25.5 °F 32.0 °F 87% 30.05 in 1.5 mi North 17.3 mph - 0.05 in Rain Heavy Rain
1:54 PM 34.0 °F 24.2 °F 30.9 °F 89% 30.07 in 2.0 mi North 15.0 mph 21.9 mph 0.14 in Rain Light Rain
2:54 PM 34.0 °F 23.4 °F 30.9 °F 89% 30.05 in 2.0 mi NNE 17.3 mph - 0.11 in Rain Rain
3:04 PM 33.8 °F 23.5 °F 30.2 °F 87% 30.03 in 5.0 mi NE 16.1 mph 25.3 mph 0.01 in Rain Light Rain
3:54 PM 34.0 °F 25.0 °F 30.9 °F 89% 30.06 in 5.0 mi NNE 12.7 mph 24.2 mph 0.06 in Rain Light Rain
4:30 PM 33.8 °F 24.3 °F 30.2 °F 87% 30.08 in 2.0 mi North 13.8 mph - 0.01 in Rain Rain
4:54 PM 33.1 °F 24.4 °F 30.0 °F 89% 30.09 in 2.0 mi North 11.5 mph 25.3 mph 0.04 in Snow Light Snow
5:54 PM 34.0 °F 24.2 °F 30.9 °F 89% 30.06 in 3.0 mi NE 15.0 mph 23.0 mph 0.08 in Rain Light Rain
6:54 PM 33.1 °F 25.5 °F 30.9 °F 92% 30.08 in 3.0 mi NNE 9.2 mph - 0.24 in Rain Rain
7:54 PM 34.0 °F 24.2 °F 30.9 °F 89% 30.08 in 3.0 mi NNE 15.0 mph 24.2 mph 0.12 in Rain Light Rain
8:32 PM 33.8 °F 23.9 °F 30.2 °F 87% 30.08 in 3.0 mi North 15.0 mph - 0.01 in Rain Light Rain
8:54 PM 34.0 °F 25.5 °F 30.9 °F 89% 30.11 in 3.0 mi North 11.5 mph 26.5 mph 0.03 in Rain Rain
9:54 PM 32.0 °F 21.2 °F 28.9 °F 88% 30.13 in 3.0 mi North 16.1 mph - 0.11 in Rain Rain
10:09 PM 32.0 °F 21.2 °F 28.4 °F 87% 30.09 in 3.0 mi North 16.1 mph 23.0 mph 0.02 in Rain Light Freezing Rain
10:54 PM 30.9 °F 20.7 °F 28.0 °F 89% 30.12 in 9.0 mi North 13.8 mph - 0.03 in Rain Light Freezing Rain
11:00 PM 30.2 °F 18.9 °F 28.4 °F 93% 30.12 in 8.0 mi North 16.1 mph 19.6 mph 0.00 in   Overcast
11:54 PM 30.0 °F 19.1 °F 26.1 °F 85% 30.14 in 9.0 mi North 15.0 mph 25.3 mph 0.00 in   Overcast